TimeCDT,TemperatureF,Dew PointF,Humidity,Sea Level PressureIn,VisibilityMPH,Wind Direction,Wind SpeedMPH,Gust SpeedMPH,PrecipitationIn,Events,Conditions,WindDirDegrees,DateUTC
12:15 AM,62.6,57.0,82,30.03,10.0,North,3.5,-,N/A,,Clear,10,2013-08-03 05:15:00
12:35 AM,63.5,57.7,81,30.04,10.0,North,3.5,-,N/A,,Mostly Cloudy,360,2013-08-03 05:35:00
12:55 AM,63.5,57.7,81,30.05,10.0,North,3.5,-,N/A,,Overcast,10,2013-08-03 05:55:00
1:15 AM,63.9,58.1,81,30.05,10.0,North,3.5,-,N/A,,Overcast,10,2013-08-03 06:15:00
1:35 AM,63.7,58.5,83,30.06,10.0,NNE,3.5,-,N/A,,Overcast,20,2013-08-03 06:35:00
1:55 AM,63.9,58.5,83,30.06,10.0,NNE,4.6,-,N/A,,Overcast,20,2013-08-03 06:55:00
2:15 AM,63.9,59.0,84,30.04,10.0,NNE,3.5,-,N/A,,Overcast,20,2013-08-03 07:15:00
2:35 AM,63.9,59.0,84,30.04,10.0,NNE,4.6,-,N/A,,Overcast,30,2013-08-03 07:35:00
2:55 AM,63.9,59.0,84,30.04,10.0,Calm,Calm,-,N/A,,Overcast,0,2013-08-03 07:55:00
3:15 AM,63.5,59.0,85,30.04,10.0,North,3.5,-,N/A,,Overcast,10,2013-08-03 08:15:00
3:35 AM,63.0,58.6,86,30.04,10.0,Calm,Calm,-,N/A,,Mostly Cloudy,0,2013-08-03 08:35:00
3:55 AM,62.6,58.6,87,30.03,10.0,North,5.8,-,N/A,,Mostly Cloudy,360,2013-08-03 08:55:00
4:15 AM,62.2,58.5,87,30.04,10.0,Calm,Calm,-,N/A,,Mostly Cloudy,0,2013-08-03 09:15:00
4:35 AM,61.7,58.5,89,30.04,10.0,North,5.8,-,N/A,,Mostly Cloudy,350,2013-08-03 09:35:00
4:55 AM,61.9,58.3,88,30.03,10.0,North,6.9,-,N/A,,Mostly Cloudy,360,2013-08-03 09:55:00
5:15 AM,61.7,58.1,88,30.04,10.0,North,8.1,-,N/A,,Unknown,360,2013-08-03 10:15:00
5:35 AM,61.2,57.9,89,30.05,10.0,North,5.8,-,N/A,,Clear,10,2013-08-03 10:35:00
5:55 AM,61.0,57.6,88,30.06,10.0,North,4.6,-,N/A,,Clear,10,2013-08-03 10:55:00
6:15 AM,60.8,57.4,88,30.06,10.0,NNE,4.6,-,N/A,,Clear,20,2013-08-03 11:15:00
6:35 AM,60.3,57.2,90,30.06,10.0,North,4.6,-,N/A,,Clear,10,2013-08-03 11:35:00
6:55 AM,61.2,57.6,88,30.07,10.0,NNE,4.6,-,N/A,,Clear,20,2013-08-03 11:55:00
7:15 AM,62.1,57.7,86,30.08,10.0,NNE,6.9,-,N/A,,Clear,20,2013-08-03 12:15:00
7:35 AM,63.5,57.7,81,30.09,10.0,NE,4.6,-,N/A,,Clear,40,2013-08-03 12:35:00
7:55 AM,64.9,57.6,77,30.11,10.0,NE,4.6,-,N/A,,Clear,40,2013-08-03 12:55:00
8:15 AM,66.6,57.2,72,30.11,10.0,ENE,6.9,-,N/A,,Clear,60,2013-08-03 13:15:00
8:35 AM,67.6,56.7,68,30.12,10.0,NE,6.9,-,N/A,,Clear,50,2013-08-03 13:35:00
8:55 AM,69.1,56.3,64,30.12,10.0,ENE,6.9,-,N/A,,Clear,70,2013-08-03 13:55:00
9:15 AM,70.2,56.1,61,30.13,10.0,ENE,6.9,-,N/A,,Clear,70,2013-08-03 14:15:00
9:35 AM,71.6,56.1,58,30.13,10.0,ENE,6.9,-,N/A,,Clear,70,2013-08-03 14:35:00
9:55 AM,73.0,55.9,55,30.14,10.0,ENE,6.9,-,N/A,,Clear,70,2013-08-03 14:55:00
10:15 AM,73.8,55.0,52,30.14,10.0,ENE,6.9,-,N/A,,Clear,60,2013-08-03 15:15:00
10:35 AM,74.3,55.6,52,30.14,10.0,ENE,8.1,-,N/A,,Clear,70,2013-08-03 15:35:00
10:55 AM,74.7,54.1,49,30.15,10.0,ENE,5.8,-,N/A,,Clear,70,2013-08-03 15:55:00
11:15 AM,75.2,52.9,46,30.15,10.0,ENE,6.9,-,N/A,,Clear,60,2013-08-03 16:15:00
11:35 AM,75.4,53.4,46,30.15,10.0,ENE,5.8,-,N/A,,Clear,70,2013-08-03 16:35:00
11:55 AM,75.6,53.2,46,30.16,10.0,NNE,6.9,-,N/A,,Clear,30,2013-08-03 16:55:00
12:15 PM,75.9,53.4,45,30.16,10.0,ENE,4.6,-,N/A,,Clear,60,2013-08-03 17:15:00
12:35 PM,76.1,53.4,45,30.15,10.0,NNW,4.6,-,N/A,,Clear,330,2013-08-03 17:35:00
12:55 PM,77.0,53.6,44,30.16,10.0,NNE,8.1,-,N/A,,Clear,20,2013-08-03 17:55:00
1:15 PM,77.4,53.4,43,30.15,10.0,NE,6.9,-,N/A,,Clear,50,2013-08-03 18:15:00
1:35 PM,77.0,53.4,44,30.15,10.0,NNE,8.1,-,N/A,,Clear,30,2013-08-03 18:35:00
1:55 PM,77.0,52.3,42,30.15,10.0,Calm,Calm,-,N/A,,Clear,0,2013-08-03 18:55:00
2:15 PM,77.9,53.6,43,30.15,10.0,North,6.9,-,N/A,,Clear,350,2013-08-03 19:15:00
2:35 PM,77.9,53.4,43,30.16,10.0,North,4.6,-,N/A,,Clear,10,2013-08-03 19:35:00
2:55 PM,78.3,54.1,43,30.15,10.0,North,9.2,-,N/A,,Clear,350,2013-08-03 19:55:00
3:15 PM,78.1,52.9,41,30.14,10.0,North,8.1,-,N/A,,Clear,10,2013-08-03 20:15:00
3:35 PM,78.6,50.9,38,30.14,10.0,North,6.9,-,N/A,,Clear,10,2013-08-03 20:35:00
3:55 PM,77.7,49.6,37,30.14,10.0,NNW,6.9,-,N/A,,Clear,340,2013-08-03 20:55:00
4:15 PM,77.9,50.5,38,30.14,10.0,NNW,3.5,-,N/A,,Clear,330,2013-08-03 21:15:00
4:35 PM,78.4,52.2,40,30.13,10.0,NNE,4.6,-,N/A,,Clear,30,2013-08-03 21:35:00
4:55 PM,76.8,53.1,44,30.13,10.0,NNE,6.9,-,N/A,,Clear,20,2013-08-03 21:55:00
5:15 PM,78.6,54.0,42,30.14,10.0,North,8.1,-,N/A,,Clear,10,2013-08-03 22:15:00
5:35 PM,78.3,52.9,41,30.13,10.0,NNE,9.2,-,N/A,,Clear,20,2013-08-03 22:35:00
5:55 PM,77.5,53.6,43,30.13,10.0,North,9.2,-,N/A,,Clear,10,2013-08-03 22:55:00
6:15 PM,76.8,52.3,42,30.12,10.0,NNE,8.1,-,N/A,,Clear,30,2013-08-03 23:15:00
6:35 PM,76.6,53.1,44,30.12,10.0,NE,9.2,-,N/A,,Clear,40,2013-08-03 23:35:00
6:55 PM,74.8,54.0,48,30.13,10.0,NNE,5.8,-,N/A,,Clear,30,2013-08-03 23:55:00
7:15 PM,74.5,54.3,49,30.14,10.0,NNE,4.6,-,N/A,,Clear,30,2013-08-04 00:15:00
7:55 PM,71.1,55.8,58,30.14,10.0,NE,4.6,-,N/A,,Unknown,40,2013-08-04 00:55:00
8:15 PM,70.5,55.8,59,30.13,10.0,NE,4.6,-,N/A,,Clear,50,2013-08-04 01:15:00
8:35 PM,68.2,56.3,66,30.15,10.0,NE,3.5,-,N/A,,Clear,40,2013-08-04 01:35:00
8:55 PM,66.6,55.8,68,30.16,10.0,Calm,Calm,-,N/A,,Clear,0,2013-08-04 01:55:00
9:15 PM,65.5,56.3,72,30.16,10.0,Calm,Calm,-,N/A,,Clear,0,2013-08-04 02:15:00
9:35 PM,64.4,56.3,75,30.17,10.0,Calm,Calm,-,N/A,,Clear,0,2013-08-04 02:35:00
9:55 PM,63.0,56.3,79,30.18,10.0,North,3.5,-,N/A,,Clear,10,2013-08-04 02:55:00
10:15 PM,63.7,55.4,74,30.18,10.0,North,3.5,-,N/A,,Clear,350,2013-08-04 03:15:00
10:35 PM,64.2,55.8,74,30.18,10.0,NNE,3.5,-,N/A,,Clear,20,2013-08-04 03:35:00
10:55 PM,62.2,55.9,80,30.19,10.0,Calm,Calm,-,N/A,,Clear,0,2013-08-04 03:55:00
11:15 PM,62.1,55.8,80,30.19,10.0,NNE,3.5,-,N/A,,Clear,30,2013-08-04 04:15:00
11:35 PM,62.4,55.4,78,30.19,10.0,NNE,3.5,-,N/A,,Clear,30,2013-08-04 04:35:00
11:55 PM,61.7,55.2,79,30.19,10.0,Calm,Calm,-,N/A,,Clear,0,2013-08-04 04:55:00